Location: Eyeline Observatory
(43.2182°N, 78.8632°W)
Time: 09:51:12
(UTC-05:00)

Envisat - Pass Details

Date: 16 October 2017
Orbit: 764 x 766 km, 98.2° (Epoch: 13 December)

Event Time Altitude Azimuth Distance (km) Brightness Sun altitude
Exits shadow 22:26:31 14° 290° (WNW) 2,030 5.7 -42.3°
Drops below altitude 10° 22:28:04 10° 307° (NW) 2,311 6.1 -42.5°
Sets 22:31:19 0° 329° (NNW) 3,244 6.9 -43.0°
